Temp
10 10 10 10 9 11 14 16 15 13 12 11 12 12 12 12 13 13 10 12 13 13 13 13 12 12 12 12 12 11 11 11 11 10 10 10 9 9 9 8 8 8 8 7 7 7 7 7 7
10 10 9 9 10 14 16 16 14 13 12 11 12 12 11 12 11 11 11 12 12 13 13 13 12 12 12 12 12 11 11 11 10 10 10 9 9 8 8 8 8 8 8 7 7 7 7 7 7
9 9 8 9 11 13 15 13 13 12 11 10 10 10 10 11 9 11 12 12 12 12 12 12 12 11 11 11 11 11 11 11 10 10 10 10 9 9 8 8 7 7 7 7 7 7 6 7 7
9 8 8 9 12 14 14 13 11 10 10 9 10 10 10 10 11 11 11 11 11 12 12 12 12 11 11 11 11 11 11 10 10 10 10 9 9 9 8 8 7 7 7 7 7 7 6 6 6
8 7 8 10 12 12 13 12 10 10 10 10 9 10 10 9 9 10 11 11 11 11 11 12 12 11 11 11 11 11 10 10 10 10 10 9 9 9 9 8 8 7 7 7 7 7 6 6 6
6 7 9 11 13 13 13 11 10 10 9 9 9 9 9 9 8 9 11 11 11 11 11 11 11 11 11 11 10 10 10 10 10 10 10 9 9 8 8 8 8 7 7 7 7 7 6 6 6
7 8 9 10 12 12 12 11 9 9 9 9 9 8 9 8 7 9 10 10 10 11 11 11 11 11 11 11 10 10 10 10 10 10 9 9 9 9 8 8 8 7 7 7 7 7 6 6 6
7 7 8 10 11 12 11 10 8 8 9 8 8 8 9 8 7 8 9 9 10 10 10 10 11 11 11 11 10 10 10 10 10 9 9 9 9 9 8 8 8 8 7 7 6 7 6 6 6
7 6 8 9 10 11 10 8 8 8 7 7 7 7 7 7 8 8 8 8 8 10 10 10 10 10 10 10 10 10 10 10 10 9 9 9 9 9 9 8 8 8 8 7 6 6 6 6 6
5 6 8 9 9 9 9 8 8 8 7 7 7 6 6 5 6 7 8 7 7 8 10 10 10 10 10 10 10 9 10 10 9 9 9 9 9 8 8 8 8 8 8 8 7 7 6 6 6
5 6 8 9 8 7 7 7 7 7 7 7 7 6 6 5 5 6 7 6 6 7 8 9 9 10 9 9 9 9 9 9 9 9 9 9 9 8 8 8 8 8 8 7 8 7 7 6 6
4 5 6 6 7 6 6 6 6 6 6 6 6 5 5 5 5 5 6 6 6 6 6 7 8 9 9 8 8 8 8 9 9 9 9 9 8 8 8 8 8 8 8 7 7 7 7 6 6
5 5 5 6 5 5 5 5 6 6 6 6 5 5 4 5 5 4 5 5 5 6 6 7 7 8 8 7 8 8 8 8 8 8 8 8 8 8 8 8 7 8 7 8 7 7 7 6 6
4 5 5 5 5 5 4 5 5 5 5 5 5 5 4 4 4 4 4 4 4 6 7 7 6 7 7 7 7 7 8 8 8 8 8 8 8 8 7 7 7 7 7 7 7 6 6 6 6
3 3 4 4 4 5 4 5 5 5 5 5 6 5 5 5 4 4 3 5 5 6 6 7 7 6 6 7 7 7 7 7 7 8 8 8 7 7 7 7 7 7 6 7 7 7 6 6 6
2 3 4 5 5 5 4 6 7 6 6 5 5 5 4 4 3 3 4 4 5 5 6 6 6 6 6 6 6 7 7 7 7 7 7 7 7 7 7 7 7 7 6 6 6 6 6 6 6
2 3 5 6 6 5 5 5 6 6 5 5 5 5 5 4 3 1 4 4 4 5 5 5 6 6 6 7 6 7 6 6 6 6 7 7 7 7 7 6 7 6 6 6 6 6 6 6 6
3 4 5 5 7 5 6 5 6 5 5 5 5 5 5 4 3 1 2 4 4 4 5 5 5 6 6 7 7 7 7 7 6 6 6 6 7 6 6 6 6 7 6 6 6 6 6 6 6
2 3 4 6 7 5 5 5 6 5 5 5 5 4 4 3 2 0 2 3 4 4 4 5 5 5 5 6 6 6 7 6 7 6 6 6 6 6 6 6 6 7 6 6 5 6 6 6 6
0 2 2 3 4 4 4 4 5 5 5 5 5 5 3 2 1 0 2 3 3 3 4 4 5 5 5 5 6 6 6 6 5 5 6 6 6 6 6 6 6 6 6 5 5 6 6 6 5
-2 -1 1 -0 1 3 4 4 5 5 5 5 4 4 2 1 -0 2 2 2 3 3 4 4 4 5 5 5 5 5 5 4 4 4 5 5 6 5 4 5 4 6 6 5 4 5 6 5 5
-4 -2 -1 -1 1 2 4 5 6 6 5 4 3 2 1 -0 1 2 2 2 3 3 4 4 5 5 4 4 5 5 5 4 4 3 2 5 5 5 5 5 5 6 6 5 4 5 5 5 5
-4 -3 -3 -2 -0 2 3 5 7 6 4 3 2 2 -0 0 1 1 2 2 2 3 3 3 4 4 4 4 4 4 4 3 3 3 2 4 5 5 5 5 5 5 5 5 4 3 4 5 5
-4 -4 -3 -1 0 2 1 4 6 5 5 4 2 0 -1 1 1 1 1 1 2 2 2 2 3 3 3 3 2 2 3 3 3 3 3 3 4 5 5 5 5 5 5 4 5 3 2 3 4
-4 -4 -3 -2 -1 2 4 4 4 4 5 4 0 -1 -2 0 0 0 0 1 1 1 2 2 3 2 3 2 2 2 3 3 3 3 3 2 4 5 5 5 5 4 4 4 5 4 2 2 4
-4 -4 -2 -1 -1 1 2 2 1 1 1 -0 -1 0 -1 -0 -0 -0 -0 0 1 1 1 2 2 2 2 2 3 3 4 4 4 3 3 3 3 5 5 4 4 4 4 4 3 3 3 3 3
-3 -3 -1 -0 0 2 0 1 -0 -0 1 1 -2 -3 -2 -1 -1 -1 -0 -0 0 1 0 1 2 2 1 2 3 3 4 4 4 4 3 3 4 4 5 4 4 4 4 4 3 4 3 2 2
-2 -1 -1 -1 0 2 4 3 2 -2 -2 -2 -3 -3 -2 -1 -1 -1 -1 -0 -1 0 0 1 1 1 2 2 3 3 3 4 4 3 3 3 4 4 4 4 5 4 3 3 4 3 2 1 2
-1 -2 -2 -2 -1 1 2 1 -2 -2 -2 -3 -4 -2 -2 -2 -2 -1 -1 -1 -0 -0 -1 0 1 1 1 2 2 2 3 3 2 2 3 3 3 3 3 4 4 3 3 3 3 1 1 2 3
-2 -1 -2 -3 -0 -2 0 0 -3 -3 -4 -4 -4 -3 -3 -3 -2 -2 -1 -1 -2 -2 -1 -0 1 1 1 1 2 2 2 3 2 3 3 3 3 3 3 4 4 4 3 3 3 1 0 2 2
Height
3140 3141 3141 3142 3148 3140 3135 3132 3131 3134 3135 3134 3133 3135 3137 3136 3140 3141 3135 3134 3136 3135 3135 3136 3139 3142 3144 3145 3146 3147 3148 3148 3147 3147 3147 3148 3148 3149 3150 3150 3150 3150 3150 3151 3152 3153 3154 3155 3156
3138 3139 3141 3143 3142 3135 3128 3127 3130 3133 3130 3129 3131 3132 3134 3135 3132 3131 3131 3133 3134 3134 3133 3134 3136 3139 3142 3144 3145 3146 3147 3147 3147 3146 3146 3147 3147 3148 3149 3149 3149 3149 3150 3150 3151 3153 3153 3154 3155
3135 3137 3141 3142 3137 3132 3128 3127 3129 3129 3128 3129 3130 3129 3130 3132 3128 3128 3128 3131 3132 3133 3132 3132 3133 3136 3139 3142 3143 3144 3145 3146 3146 3146 3146 3146 3147 3147 3148 3148 3148 3148 3149 3149 3151 3151 3152 3153 3153
3132 3135 3137 3136 3131 3129 3129 3128 3127 3127 3127 3126 3128 3129 3128 3123 3125 3123 3125 3128 3129 3130 3130 3129 3130 3132 3135 3138 3140 3142 3143 3144 3145 3145 3145 3146 3146 3147 3147 3147 3147 3147 3147 3148 3149 3150 3151 3151 3152
3130 3133 3134 3131 3127 3127 3127 3125 3124 3125 3126 3125 3125 3125 3127 3122 3120 3120 3121 3124 3126 3126 3127 3128 3128 3129 3132 3134 3136 3139 3141 3142 3143 3143 3144 3144 3145 3145 3146 3146 3146 3146 3146 3147 3148 3149 3149 3150 3151
3128 3129 3129 3126 3123 3123 3123 3121 3121 3121 3121 3121 3121 3120 3122 3123 3118 3115 3118 3120 3122 3123 3124 3124 3125 3127 3128 3130 3133 3135 3138 3139 3140 3141 3141 3141 3142 3143 3144 3144 3144 3145 3146 3145 3146 3146 3148 3148 3149
3123 3127 3123 3122 3121 3120 3121 3118 3117 3118 3118 3118 3117 3115 3118 3118 3113 3110 3114 3115 3117 3118 3120 3120 3121 3122 3125 3127 3128 3130 3133 3135 3137 3138 3138 3139 3140 3140 3141 3141 3142 3143 3143 3143 3144 3144 3145 3146 3147
3119 3121 3119 3118 3117 3116 3117 3113 3112 3113 3114 3110 3110 3111 3114 3115 3105 3108 3109 3110 3111 3113 3115 3117 3118 3119 3121 3123 3125 3127 3129 3131 3133 3135 3135 3136 3137 3137 3138 3138 3139 3140 3141 3141 3141 3142 3142 3143 3143
3113 3114 3112 3112 3113 3112 3113 3108 3111 3109 3106 3107 3106 3105 3107 3103 3103 3105 3105 3107 3106 3107 3110 3112 3113 3115 3117 3119 3121 3123 3125 3127 3129 3130 3131 3132 3133 3134 3135 3136 3137 3138 3138 3139 3139 3138 3139 3139 3140
3107 3105 3104 3108 3107 3106 3106 3105 3105 3106 3103 3102 3103 3102 3100 3098 3098 3099 3101 3103 3103 3101 3103 3106 3109 3111 3112 3114 3116 3118 3121 3123 3125 3126 3128 3129 3130 3131 3131 3133 3134 3134 3135 3136 3135 3135 3136 3136 3136
3103 3096 3102 3102 3102 3098 3098 3097 3099 3098 3098 3099 3098 3098 3096 3094 3093 3094 3096 3098 3098 3097 3097 3099 3102 3104 3106 3109 3112 3115 3116 3119 3121 3123 3124 3125 3126 3126 3127 3128 3129 3130 3130 3132 3132 3132 3132 3132 3133
3097 3094 3094 3094 3094 3090 3088 3090 3090 3091 3091 3092 3091 3090 3089 3089 3089 3090 3091 3094 3092 3093 3094 3093 3095 3098 3100 3102 3105 3108 3110 3114 3116 3117 3119 3120 3121 3122 3123 3124 3125 3126 3127 3127 3128 3129 3129 3129 3129
3093 3091 3089 3088 3085 3083 3083 3081 3082 3082 3084 3085 3085 3084 3082 3083 3084 3085 3087 3088 3089 3087 3087 3088 3089 3092 3094 3096 3098 3100 3103 3106 3109 3111 3113 3114 3116 3117 3118 3119 3120 3121 3122 3123 3123 3124 3124 3125 3126
3091 3086 3082 3080 3079 3077 3076 3075 3075 3074 3075 3076 3078 3079 3078 3078 3079 3080 3081 3083 3080 3080 3081 3083 3085 3086 3087 3089 3092 3094 3096 3099 3101 3103 3107 3108 3110 3112 3112 3114 3115 3116 3117 3119 3120 3120 3119 3120 3122
3082 3076 3075 3072 3072 3071 3072 3066 3066 3068 3070 3070 3074 3073 3075 3076 3074 3075 3072 3074 3074 3075 3074 3076 3079 3080 3081 3084 3086 3088 3090 3093 3094 3096 3098 3102 3103 3106 3107 3109 3110 3112 3110 3113 3115 3116 3116 3117 3116
3076 3073 3066 3065 3067 3065 3070 3053 3063 3063 3063 3064 3066 3069 3069 3071 3069 3068 3065 3068 3068 3068 3068 3070 3071 3073 3075 3076 3078 3080 3083 3085 3087 3089 3090 3093 3095 3098 3100 3101 3104 3107 3107 3108 3110 3111 3111 3111 3111
3067 3063 3062 3058 3059 3058 3058 3056 3056 3058 3058 3060 3062 3064 3066 3066 3065 3061 3060 3060 3062 3062 3063 3063 3064 3065 3067 3069 3071 3073 3075 3076 3079 3081 3082 3085 3088 3089 3092 3094 3097 3099 3101 3102 3104 3106 3106 3107 3107
3059 3059 3054 3052 3055 3049 3050 3049 3053 3052 3053 3054 3056 3058 3061 3061 3062 3055 3053 3053 3054 3055 3056 3057 3057 3058 3059 3061 3062 3064 3065 3067 3069 3071 3073 3075 3080 3081 3083 3086 3089 3091 3093 3094 3097 3099 3100 3101 3101
3052 3052 3048 3046 3046 3046 3045 3043 3045 3047 3047 3049 3050 3052 3055 3057 3054 3051 3047 3048 3049 3048 3049 3050 3051 3050 3051 3052 3053 3054 3054 3055 3056 3058 3062 3064 3069 3071 3073 3077 3079 3083 3085 3087 3090 3091 3094 3095 3095
3048 3045 3043 3044 3043 3042 3041 3037 3037 3038 3040 3042 3044 3046 3049 3050 3050 3045 3044 3044 3043 3043 3042 3042 3042 3043 3042 3041 3040 3040 3040 3042 3043 3043 3048 3053 3056 3058 3063 3068 3072 3075 3078 3079 3082 3084 3087 3088 3089
3040 3041 3041 3041 3039 3036 3036 3029 3028 3028 3032 3036 3037 3040 3042 3045 3043 3041 3040 3039 3038 3037 3036 3034 3032 3031 3031 3030 3027 3026 3027 3029 3032 3033 3034 3039 3044 3048 3052 3054 3064 3067 3069 3072 3074 3076 3079 3082 3083
3033 3035 3037 3037 3036 3028 3028 3018 3016 3015 3024 3028 3032 3034 3038 3039 3036 3036 3036 3035 3033 3031 3029 3026 3023 3021 3017 3016 3015 3012 3012 3014 3019 3024 3025 3031 3034 3037 3040 3047 3050 3057 3061 3063 3066 3068 3071 3073 3076
3025 3031 3031 3033 3030 3024 3019 3017 3011 3012 3019 3024 3027 3031 3032 3030 3031 3031 3031 3029 3027 3024 3021 3017 3013 3009 3007 3003 3000 2998 2998 3001 3005 3011 3016 3019 3023 3027 3030 3036 3041 3046 3050 3054 3056 3058 3063 3066 3068
3024 3024 3026 3025 3024 3017 3014 3013 3006 3008 3012 3019 3023 3025 3026 3026 3026 3027 3026 3024 3021 3017 3013 3008 3004 3000 2996 2992 2989 2988 2987 2991 2994 2998 3004 3007 3013 3018 3021 3024 3029 3036 3041 3044 3048 3048 3053 3059 3061
3020 3024 3023 3019 3016 3008 3005 3006 3009 3007 3010 3014 3015 3020 3021 3021 3022 3023 3021 3018 3015 3011 3006 3002 2997 2992 2988 2984 2981 2980 2979 2980 2983 2986 2991 2998 3002 3007 3011 3014 3017 3025 3033 3037 3039 3040 3032 3047 3053
3012 3017 3015 3007 3009 3004 3002 3003 3005 3007 3005 3009 3010 3015 3016 3017 3019 3017 3015 3012 3009 3004 3000 2995 2991 2986 2980 2977 2974 2973 2973 2974 2974 2978 2983 2989 2993 2998 3002 3005 3009 3016 3021 3026 3030 3034 3035 3039 3044
3009 3008 3009 3006 3004 3000 2998 3000 3002 3005 3006 3007 3010 3013 3012 3013 3014 3012 3009 3005 3002 2999 2994 2989 2985 2980 2974 2971 2969 2966 2966 2966 2967 2970 2976 2982 2986 2990 2994 2997 3000 3005 3010 3016 3019 3023 3026 3030 3035
3006 3006 3009 3009 3001 2991 2987 2991 2991 3001 3005 3007 3009 3008 3008 3008 3008 3006 3003 3000 2996 2993 2989 2984 2979 2974 2969 2967 2965 2962 2961 2960 2961 2965 2970 2975 2980 2982 2985 2989 2991 2995 3001 3007 3010 3011 3015 3018 3026
3002 3000 3003 3002 3001 2994 2990 2991 2996 2997 3002 3007 3007 3003 3003 3004 3003 3001 2998 2994 2991 2987 2983 2979 2974 2970 2965 2963 2961 2959 2958 2958 2959 2961 2965 2968 2973 2976 2978 2981 2985 2989 2995 2999 3003 3004 2996 3011 3018
3000 2999 2999 3000 2998 3000 2996 2996 2995 2999 3002 3005 3004 3001 3000 2999 2999 2996 2993 2989 2985 2982 2978 2974 2969 2965 2960 2958 2956 2955 2954 2953 2956 2957 2958 2961 2966 2968 2971 2975 2979 2982 2987 2993 2996 3001 3004 3007 3011
Wind_Speed
13 10 8 7 6 11 17 16 11 7 4 7 10 8 8 12 7 5 5 14 13 13 10 13 14 15 15 14 11 9 7 6 6 5 3 4 4 2 2 3 4 3 3 3 4 5 5 6 6
13 10 8 4 13 20 21 10 5 9 12 11 12 13 9 8 15 17 13 13 11 14 10 12 13 16 16 15 13 11 8 7 5 4 3 4 5 4 3 3 3 3 3 4 5 6 7 8 7
14 10 6 10 21 23 19 3 5 8 15 6 5 9 11 7 14 20 22 16 15 13 14 14 13 17 18 17 15 13 11 9 6 5 4 6 5 5 5 5 4 4 5 5 6 7 8 8 9
12 11 11 16 24 20 17 15 7 7 8 9 7 8 11 20 23 24 20 14 15 16 17 17 17 19 21 20 18 16 14 12 10 8 6 7 8 7 7 7 7 6 6 6 8 8 9 9 10
14 9 17 22 24 22 19 17 15 13 14 13 12 14 14 16 18 24 22 19 17 19 19 18 18 20 22 22 21 19 16 14 11 10 8 9 10 11 10 9 9 8 9 9 9 10 10 10 10
11 9 19 22 23 20 19 19 16 17 16 17 19 18 17 17 15 27 21 19 20 21 21 21 19 20 23 25 24 22 19 15 14 14 13 12 12 12 12 11 11 10 10 11 10 11 11 11 11
16 18 22 23 26 25 21 20 16 16 16 16 17 17 11 14 20 26 21 22 23 25 25 23 23 22 24 26 27 25 23 20 16 16 16 15 14 13 14 13 13 12 12 13 13 14 14 13 14
17 18 26 25 27 28 20 17 16 15 16 19 22 12 13 15 26 24 19 22 26 27 29 27 26 25 26 27 29 27 26 23 20 19 19 18 16 16 15 15 15 14 14 15 15 15 16 16 16
21 19 25 25 24 25 21 19 14 19 18 16 16 18 17 28 31 27 21 18 21 28 31 32 30 28 27 30 31 30 29 26 23 23 22 20 19 18 17 15 15 15 15 16 16 16 17 17 20
22 23 27 23 25 25 21 21 19 19 20 17 19 19 19 20 22 22 22 18 20 25 32 36 34 33 32 33 34 32 31 27 26 26 24 22 20 20 18 17 15 15 16 17 17 18 20 20 20
20 33 25 24 24 23 25 26 23 24 25 22 22 21 20 18 17 19 19 16 14 24 27 34 38 36 35 34 34 33 34 30 29 28 27 24 22 23 21 20 16 17 16 17 18 18 20 20 21
32 30 26 26 25 25 26 24 26 26 25 23 22 22 20 18 17 16 18 14 20 15 19 26 35 38 37 37 37 36 37 33 31 29 30 28 25 25 24 22 19 19 19 17 18 19 20 21 22
32 31 28 25 27 27 27 27 28 28 25 22 21 19 21 17 16 14 13 15 12 22 25 28 31 34 37 39 40 39 39 39 36 35 33 32 31 28 27 24 22 22 20 20 19 19 19 21 21
28 21 29 29 29 26 28 29 26 26 20 21 20 20 17 15 13 13 12 13 24 30 33 32 29 34 36 38 39 41 42 41 39 38 37 35 34 31 30 28 26 24 23 21 21 19 21 20 23
31 39 34 35 29 31 20 31 32 27 23 21 20 19 16 14 13 11 18 19 23 28 35 36 34 33 37 37 37 39 42 42 42 41 40 38 37 35 34 32 30 27 28 24 22 21 22 22 23
34 30 37 30 30 31 26 36 18 17 22 19 18 14 15 14 16 12 20 20 22 25 31 36 40 39 37 38 42 40 42 43 43 44 44 43 41 39 37 37 34 32 30 28 26 24 23 22 24
33 38 33 28 25 24 28 26 19 17 16 18 17 17 15 16 13 13 21 23 22 24 26 29 36 42 45 44 44 47 47 45 46 46 47 47 44 44 42 40 39 38 36 34 29 27 25 23 24
31 37 36 34 27 24 28 27 22 20 18 14 17 17 16 16 13 17 17 23 23 25 25 27 30 34 40 48 50 50 51 53 52 52 52 50 48 46 46 44 43 41 40 38 34 30 29 26 23
39 37 37 31 27 27 25 25 25 23 23 21 20 17 18 16 15 9 19 22 23 26 28 29 31 34 37 39 44 50 55 57 59 59 57 57 53 53 48 47 46 43 41 39 38 33 33 29 26
36 39 39 34 23 23 26 29 25 26 26 23 19 18 17 14 10 11 17 19 20 24 27 29 30 31 35 41 45 49 54 55 57 58 62 59 58 57 54 49 48 42 42 40 39 36 34 33 30
29 35 36 33 26 27 28 33 27 25 23 21 19 19 18 13 10 15 16 19 22 25 28 29 32 35 35 37 45 51 55 55 59 59 58 56 59 59 62 57 54 44 44 41 40 38 37 34 33
32 26 30 31 28 29 27 23 23 27 21 21 21 18 14 10 14 15 15 16 19 23 26 28 30 31 34 35 43 51 54 57 58 58 47 52 49 51 54 54 51 50 47 43 41 41 38 37 35
28 23 25 31 30 28 25 15 19 19 21 21 20 17 13 11 12 12 12 14 19 22 24 27 32 33 32 38 39 44 48 46 48 55 47 51 50 44 39 52 56 55 50 44 42 44 39 38 38
18 14 20 22 27 23 29 26 21 22 23 22 21 15 11 12 12 13 15 18 22 24 28 32 34 35 37 35 34 36 39 43 43 45 52 50 50 46 44 46 56 55 50 47 46 54 41 37 37
23 10 5 7 10 11 20 17 29 14 15 23 20 13 8 12 13 15 17 21 23 26 28 33 36 34 35 30 30 30 34 37 43 40 48 46 46 46 47 43 50 52 50 49 51 49 37 37 39
30 32 10 5 5 9 16 8 8 12 16 17 16 12 10 13 14 16 19 21 25 28 28 30 32 33 34 26 26 29 31 35 36 35 43 44 44 46 43 38 42 46 52 49 47 45 37 40 41
11 37 28 20 21 13 10 12 13 19 19 16 9 4 10 14 15 16 19 22 27 30 30 31 30 30 28 22 25 25 28 29 31 34 41 43 43 42 40 41 43 49 51 49 49 46 42 43 51
22 20 25 16 5 10 13 21 11 17 12 9 6 8 12 14 17 21 25 29 34 33 31 30 29 30 26 22 22 19 20 22 23 27 37 41 41 39 37 36 42 47 45 44 40 48 49 40 41
21 14 15 10 13 6 11 2 7 17 15 9 4 10 15 17 20 25 29 35 41 34 32 31 29 28 27 23 20 19 21 18 21 26 31 37 36 39 35 36 36 40 45 47 44 38 42 44 43
8 10 7 6 8 11 14 3 11 9 8 1 11 17 21 24 28 32 36 38 35 30 31 30 28 28 28 29 24 20 22 23 23 28 31 33 35 37 36 35 38 38 38 46 47 47 38 43 40
Wind_Direction
293 293 290 278 255 248 262 264 233 243 245 211 246 248 235 230 235 273 276 219 228 209 192 199 218 225 220 215 214 209 200 194 168 147 133 147 133 106 12 359 356 333 293 251 245 250 253 252 267
290 293 284 234 251 254 256 258 230 246 216 250 268 265 273 257 229 235 240 225 214 197 193 196 208 225 226 223 223 226 215 212 199 184 192 200 198 209 240 287 311 327 292 263 248 245 246 252 259
290 281 256 265 254 256 267 337 250 234 254 249 261 263 238 242 247 251 253 246 242 220 201 192 202 221 228 227 227 229 227 223 220 221 225 241 239 243 250 265 287 282 282 269 258 249 245 246 250
287 276 252 248 257 260 267 271 256 242 257 254 243 265 262 250 259 260 258 250 234 221 202 190 197 214 222 223 229 230 231 229 228 232 243 254 248 256 265 271 275 276 274 268 257 254 250 246 250
277 248 253 259 265 268 266 259 256 245 248 250 258 256 263 286 270 257 260 252 229 213 211 198 204 213 220 222 225 230 232 234 239 243 257 263 260 261 270 275 277 277 266 262 258 257 249 247 249
250 248 252 260 267 270 271 255 258 260 261 259 259 262 254 252 259 265 259 252 234 218 211 202 207 217 217 222 225 226 230 233 239 248 251 256 258 262 267 272 273 271 270 264 258 260 253 253 247
249 247 261 267 270 270 268 270 262 263 262 263 258 240 246 249 249 268 255 251 237 227 217 210 205 215 221 225 226 224 224 226 233 249 251 255 254 260 262 269 274 268 267 263 259 258 257 251 247
251 256 262 258 266 273 274 265 261 262 255 256 235 255 263 232 249 264 262 253 244 232 226 220 213 217 225 229 230 228 226 225 232 245 252 253 255 257 257 259 269 268 270 261 257 259 261 256 246
260 245 252 259 264 270 270 268 266 252 257 258 259 258 252 245 252 264 257 256 261 239 232 224 220 223 230 233 233 231 228 228 234 242 247 248 256 258 259 259 268 271 268 269 257 258 259 257 254
238 248 252 262 260 261 257 263 274 261 271 268 262 263 269 271 272 262 256 252 255 254 235 227 226 225 231 233 235 234 231 230 236 242 246 246 253 260 257 254 261 267 270 272 264 257 257 256 258
248 250 259 255 264 263 261 262 261 262 261 265 267 264 264 268 267 263 256 250 255 247 249 236 230 229 230 234 238 235 235 232 238 243 246 243 251 256 252 253 255 263 269 270 273 267 262 261 259
253 255 260 261 257 263 263 266 261 257 261 261 263 266 264 262 267 261 260 253 247 251 246 248 236 232 229 232 231 234 238 233 240 242 246 242 245 253 256 254 261 262 269 270 269 270 266 262 259
257 263 258 264 265 258 263 258 262 260 260 263 263 260 258 258 255 258 250 245 250 242 243 241 237 235 234 234 235 233 233 234 238 242 243 244 243 249 252 254 259 261 266 272 268 268 271 265 262
263 264 262 262 259 260 259 262 258 258 262 254 254 251 255 251 246 243 248 236 241 241 243 244 243 238 237 239 239 239 236 235 237 241 241 242 244 245 249 254 258 262 264 268 270 266 268 267 263
265 264 266 259 256 257 258 259 254 255 246 247 249 247 244 242 245 248 233 250 250 245 243 243 245 243 242 241 243 243 244 240 241 239 239 239 242 245 245 248 252 256 263 262 263 262 265 265 268
269 267 262 263 260 255 244 257 259 249 234 235 235 226 232 243 245 246 259 258 253 249 244 245 246 247 247 249 244 243 244 245 245 243 239 238 239 240 243 246 249 252 256 261 260 256 258 266 268
253 259 262 269 249 236 233 253 249 240 222 220 227 233 239 238 252 246 263 260 256 253 253 247 245 247 248 249 249 249 246 247 245 244 244 240 239 241 241 244 246 250 253 256 256 254 256 262 271
253 250 256 257 245 239 234 244 240 245 225 237 233 235 236 244 235 249 262 258 260 258 254 252 253 249 247 249 252 251 251 251 248 246 245 247 239 241 242 241 244 246 252 254 251 250 252 257 264
255 257 259 260 252 239 242 248 245 236 247 245 238 234 237 229 228 239 264 264 263 264 264 263 262 261 259 256 251 250 251 252 251 248 246 247 244 241 242 240 242 243 253 255 250 245 248 252 258
255 255 250 254 253 242 249 256 250 246 244 235 232 231 216 215 217 246 257 265 271 277 278 279 277 274 271 267 261 256 251 248 248 251 248 245 245 244 242 241 244 240 251 252 251 241 244 249 254
252 259 254 253 259 257 260 258 250 237 236 232 220 211 200 205 217 245 257 272 277 281 282 285 283 280 278 267 261 260 257 251 246 252 252 245 245 245 248 248 240 242 251 254 252 241 242 246 252
246 242 256 262 252 247 240 253 257 224 213 205 191 187 191 205 229 250 275 285 287 287 288 291 290 289 286 277 265 261 258 254 247 245 250 247 247 247 247 242 240 241 247 253 253 242 240 243 248
243 249 253 248 250 253 244 254 251 197 194 190 187 186 198 220 244 277 290 309 313 305 311 308 304 303 294 293 278 267 262 256 248 245 239 244 242 247 248 243 243 243 242 246 249 243 240 241 245
222 258 247 241 245 240 241 246 254 194 199 191 183 182 205 233 255 288 292 318 323 317 316 319 314 310 304 295 276 270 265 254 251 243 235 244 240 243 245 245 240 240 241 246 250 260 241 249 250
214 222 223 224 222 246 232 233 231 191 198 188 175 182 224 246 264 285 305 324 323 323 319 316 316 312 306 289 279 270 272 258 253 248 230 235 241 239 244 249 241 235 238 245 253 270 244 237 255
207 206 217 213 210 244 261 246 113 139 161 157 161 229 245 256 277 292 306 322 331 328 321 314 314 312 307 288 284 275 269 257 253 246 229 230 240 240 245 247 240 232 236 243 244 250 245 248 243
236 212 224 262 282 274 180 162 172 199 200 208 207 218 248 261 279 294 305 316 323 327 325 317 314 319 308 287 290 278 268 258 253 244 229 231 241 245 248 245 235 232 233 239 242 245 242 241 244
231 225 225 224 257 236 210 197 186 177 169 161 156 223 246 265 278 292 301 304 311 316 321 320 318 323 308 277 290 274 266 256 246 244 233 232 241 246 248 246 233 231 234 240 246 244 239 235 228
222 221 232 230 267 288 262 102 109 153 144 152 173 231 257 284 294 296 298 301 308 310 311 316 320 317 306 283 287 268 267 262 243 236 232 234 237 237 239 246 238 234 232 235 243 260 220 214 224
228 249 254 255 220 244 280 297 130 139 157 199 313 294 290 293 298 300 301 301 305 306 307 311 314 320 323 292 281 268 266 264 252 242 229 231 234 236 238 248 240 238 229 233 240 251 227 224 229